GW7317 Weather Reports


time (UTC)temp
F
wind
direction
speed
knots
gust
knots
rain 1hr
in
rain 24hr
in
rain mn
in
humidity
%
barometer
mb
20260502170442 72 323 2.6 2.6 0.00 0.00 0.00 45 1021.8
20260502163925 73 272 0.9 3.5 0.00 0.00 0.00 45 1021.7
20260502163421 72 315 1.7 2.6 0.00 0.00 0.00 50 1021.8
20260502162919 72 337 0.9 2.6 0.00 0.00 0.00 50 1021.7
20260502162415 72 284 0.9 5.2 0.00 0.00 0.00 48 1021.7
20260502161912 71 281 0.0 0.9 0.00 0.00 0.00 51 1021.6
20260502161409 71 183 1.7 2.6 0.00 0.00 0.00 52 1021.6
20260502160907 71 295 0.9 3.5 0.00 0.00 0.00 51 1021.6
20260502160405 70 192 0.9 6.1 0.00 0.00 0.00 54 1021.5
20260502151843 67 329 1.7 5.2 0.00 0.00 0.00 59 1021.3
20260502151340 68 314 2.6 3.5 0.00 0.00 0.00 60 1021.4
20260502150837 68 327 0.9 2.6 0.00 0.00 0.00 61 1021.5
20260502150333 67 178 0.0 0.9 0.00 0.00 0.00 63 1021.3
20260502130722 56 338 0.0 0.0 0.00 0.00 0.00 88 1020.2
20260502130219 55 331 0.0 0.9 0.00 0.00 0.00 88 1020.2
20260502123706 53 299 0.0 0.0 0.00 0.00 0.00 93 1019.6
20260502123202 53 299 0.0 0.0 0.00 0.00 0.00 94 1019.7
20260502122658 53 300 0.0 0.0 0.00 0.00 0.00 95 1019.6
20260502122155 53 299 0.0 0.9 0.00 0.00 0.00 95 1019.4
20260502121653 52 299 0.0 0.9 0.00 0.00 0.00 96 1019.5
20260502121151 52 300 0.9 0.9 0.00 0.00 0.00 96 1019.4
20260502120647 52 300 0.0 0.0 0.00 0.00 0.00 96 1019.4
20260502120144 52 300 0.0 0.0 0.00 0.00 0.00 96 1019.3
20260502115642 52 300 0.0 0.0 0.00 0.00 0.00 96 1019.5
20260502115137 52 300 0.0 0.0 0.00 0.00 0.00 96 1019.1
20260502114633 52 300 0.0 0.0 0.00 0.00 0.00 96 1018.9
20260502114131 52 300 0.0 0.0 0.00 0.00 0.00 95 1019.1
20260502113628 52 300 0.0 0.0 0.00 0.00 0.00 95 1019.1
20260502113127 52 300 0.0 0.0 0.00 0.00 0.00 95 1019.0
20260502112624 52 301 0.0 0.9 0.00 0.00 0.00 95 1018.8
20260502112121 52 305 0.0 0.0 0.00 0.00 0.00 95 1019.0
20260502111619 52 305 0.0 0.0 0.00 0.00 0.00 95 1018.8
20260502111116 52 306 0.0 0.0 0.00 0.00 0.00 94 1018.9
20260502110614 52 306 0.0 0.0 0.00 0.00 0.00 94 1018.8
20260502110111 52 320 0.0 0.0 0.00 0.00 0.00 94 1018.8
20260502105609 52 326 0.0 0.9 0.00 0.00 0.00 94 1018.6
20260502105105 53 214 0.0 0.0 0.00 0.00 0.00 93 1018.7
20260502104602 53 214 0.0 0.0 0.00 0.00 0.00 93 1018.8
20260502104100 53 211 0.0 0.9 0.00 0.00 0.00 93 1018.5
20260502103557 53 211 0.0 0.0 0.00 0.00 0.00 93 1018.5
20260502103056 53 211 0.0 0.9 0.00 0.00 0.00 92 1018.4
20260502102551 53 175 0.0 0.0 0.00 0.00 0.00 92 1018.5
20260502102049 53 268 0.0 0.0 0.00 0.00 0.00 92 1018.6
20260502101547 53 268 0.0 0.9 0.00 0.00 0.00 92 1018.4
20260502101045 53 268 0.0 0.0 0.00 0.00 0.00 92 1018.1
20260502100543 53 268 0.0 0.0 0.00 0.00 0.00 93 1017.9
20260502091517 54 268 0.0 0.0 0.00 0.00 0.00 91 1017.1
20260502091015 54 268 0.0 0.0 0.00 0.00 0.00 90 1017.3
20260502090511 54 268 0.0 0.0 0.00 0.00 0.00 90 1017.0
20260502071406 56 312 0.0 0.9 0.00 0.00 0.00 89 1017.1
20260502070904 56 249 0.9 0.9 0.00 0.00 0.00 90 1017.0
20260502070402 56 237 0.0 0.9 0.00 0.00 0.00 90 1017.0
20260502065900 56 273 0.0 0.9 0.00 0.00 0.00 90 1017.1
20260502065358 55 213 0.0 0.9 0.00 0.00 0.00 91 1017.1
20260502064856 55 218 0.9 0.9 0.00 0.00 0.00 90 1017.1
20260502064354 55 292 0.0 5.2 0.00 0.00 0.00 90 1016.9
20260502063850 55 250 0.9 1.7 0.00 0.00 0.00 91 1016.7
20260502063349 55 238 0.0 0.9 0.00 0.00 0.00 92 1016.8
20260502062845 55 212 0.0 1.7 0.00 0.00 0.00 92 1016.7
20260502062343 55 328 0.9 1.7 0.00 0.00 0.00 92 1016.7
20260502061842 55 289 0.0 0.9 0.00 0.00 0.00 92 1016.6
20260502061339 55 327 0.0 0.9 0.00 0.00 0.00 91 1016.5
20260502060835 55 295 0.9 1.7 0.00 0.00 0.00 91 1016.6
20260502060330 56 265 1.7 1.7 0.00 0.00 0.00 91 1016.7
20260502055828 56 225 0.0 1.7 0.00 0.00 0.00 91 1016.7
20260502055326 56 303 1.7 1.7 0.00 0.00 0.00 91 1016.6
20260502054825 56 275 0.0 2.6 0.00 0.00 0.00 91 1016.6
20260502054322 56 280 1.7 1.7 0.00 0.00 0.00 92 1016.6
20260502053820 56 265 0.9 1.7 0.00 0.00 0.00 91 1016.7
20260502053316 56 222 0.0 1.7 0.00 0.00 0.00 92 1016.7
20260502052814 56 314 0.9 1.7 0.00 0.00 0.00 91 1016.7
20260502052312 56 310 0.9 3.5 0.00 0.00 0.00 91 1016.5
20260502051810 56 265 0.0 1.7 0.00 0.00 0.00 91 1016.5
20260502051309 56 227 1.7 2.6 0.00 0.00 0.00 92 1016.6
20260502050804 56 288 1.7 2.6 0.00 0.00 0.00 92 1016.4
20260502050300 56 287 0.9 2.6 0.00 0.00 0.00 92 1016.6
20260502045758 56 298 0.0 2.6 0.00 4.93 4.93 92 1016.5
20260502045254 56 233 0.9 1.7 0.00 4.93 4.93 93 1016.6
20260502044751 56 278 0.9 1.7 0.00 4.93 4.93 93 1016.6
20260502044247 56 23 0.9 1.7 0.00 4.93 4.93 93 1016.5
20260502043745 56 248 0.9 1.7 0.00 4.93 4.93 93 1016.5
20260502043242 56 294 0.0 2.6 0.00 4.93 4.93 93 1016.4
20260502042742 56 315 0.0 2.6 0.00 4.93 4.93 93 1016.3
20260502042239 56 317 0.0 2.6 0.00 4.93 4.93 93 1016.2
20260502041736 56 223 0.9 0.9 0.00 4.93 4.93 93 1016.3
20260502041234 56 310 1.7 1.7 0.00 4.93 4.93 93 1016.2
20260502040731 56 262 0.9 1.7 0.00 4.93 4.93 93 1016.4
20260502040228 56 283 0.9 0.9 0.00 4.93 4.93 93 1016.5
20260502035724 56 301 0.9 0.9 0.00 4.93 4.93 93 1016.6
20260502035220 56 254 0.9 0.9 0.00 4.93 4.93 94 1016.5
20260502034718 56 295 0.0 1.7 0.00 4.93 4.93 94 1016.6
20260502034216 56 1 1.7 1.7 0.00 4.93 4.93 93 1016.7
20260502033714 56 144 0.9 1.7 0.00 4.93 4.93 94 1016.2
20260502033212 56 272 0.9 1.7 0.00 4.93 4.93 94 1016.3
20260502032708 56 10 0.9 3.5 0.00 4.93 4.93 94 1016.2
20260502032203 56 322 3.5 6.1 0.00 4.93 4.93 94 1016.0
20260502031702 56 197 0.0 1.7 0.00 4.93 4.93 94 1016.1
20260502031200 56 202 0.9 6.1 0.00 4.93 4.93 94 1015.8
20260502030658 56 331 0.0 2.6 0.00 4.93 4.93 94 1015.8
20260502030156 56 348 0.0 2.6 0.00 4.93 4.93 94 1015.7
20260502025653 56 329 2.6 2.6 0.00 4.93 4.93 94 1015.9
20260502025150 56 275 0.9 0.9 0.00 4.93 4.93 94 1015.3
20260502024648 56 250 0.9 5.2 0.00 4.93 4.93 94 1015.3
20260502024146 56 268 0.9 1.7 0.00 4.93 4.93 94 1015.0
20260502023644 56 344 1.7 3.5 0.00 4.93 4.93 95 1015.0
20260502023141 56 214 0.9 2.6 0.00 4.93 4.93 95 1014.8
20260502022638 56 212 0.9 1.7 0.00 4.93 4.93 95 1014.7
20260502022135 56 337 1.7 2.6 0.00 4.93 4.93 95 1014.9
20260502021632 57 147 1.7 3.5 0.12 4.93 4.93 95 1015.0
20260502021129 57 293 0.9 3.5 0.05 4.92 4.92 95 1014.7
20260502020627 57 293 0.9 1.7 0.12 4.91 4.91 95 1014.7
20260502020123 57 280 0.0 0.9 0.12 4.90 4.90 95 1014.8
20260502015621 57 329 0.9 0.9 0.12 4.89 4.89 95 1014.6
20260502015117 57 273 0.9 1.7 0.12 4.88 4.88 95 1014.8
20260502014614 57 269 2.6 5.2 0.12 4.87 4.87 95 1014.4
20260502014112 57 273 0.9 0.9 0.05 4.86 4.86 95 1014.8
20260502013607 57 331 0.9 3.5 0.12 4.85 4.85 94 1014.6
20260502013103 58 164 1.7 2.6 0.24 4.84 4.84 95 1014.1
20260502012601 58 311 0.9 1.7 0.38 4.83 4.83 95 1013.8
20260502012059 58 220 0.9 0.9 0.17 4.79 4.79 95 1013.8
20260502011555 59 335 0.0 3.5 0.17 4.77 4.77 95 1013.7
20260502011051 59 267 0.9 1.7 0.19 4.76 4.76 95 1013.6
20260502010549 59 324 0.0 0.9 0.12 4.74 4.74 95 1013.9
20260502010045 59 304 0.0 5.2 0.05 4.73 4.73 96 1014.4
20260502005543 59 314 0.0 0.9 0.00 4.72 4.72 96 1014.6
20260502005040 59 335 0.0 1.7 0.07 4.72 4.72 96 1013.8
20260502004536 59 265 1.7 1.7 0.07 4.72 4.72 96 1012.9
20260502004033 59 333 1.7 2.6 0.00 4.71 4.71 95 1012.7
20260502003531 59 314 2.6 6.1 0.05 4.71 4.71 95 1012.4
20260502003027 59 341 1.7 2.6 0.05 4.71 4.71 95 1012.3
20260502002524 59 285 0.9 1.7 0.00 4.70 4.70 95 1012.8
20260502002021 59 342 0.0 0.0 0.07 4.70 4.70 95 1013.1
20260502001519 59 33 0.9 0.9 0.05 4.69 4.69 95 1013.9
20260502001016 59 44 0.0 0.9 0.19 4.69 4.69 95 1013.4
20260502000514 59 274 0.9 0.9 0.26 4.68 4.68 95 1013.0
20260502000011 59 307 1.7 1.7 0.28 4.66 4.66 95 1013.3
20260501235507 59 195 0.0 0.9 0.35 4.63 4.63 96 1013.7
20260501235002 59 195 0.0 0.9 0.28 4.60 4.60 95 1013.3
20260501234458 59 207 0.0 0.9 0.17 4.58 4.58 95 1013.1
20260501233957 59 236 0.9 0.9 0.00 4.55 4.55 95 1012.6
20260501233454 59 329 0.0 2.6 0.00 4.55 4.55 95 1012.9
20260501232950 59 305 0.9 2.6 0.07 4.55 4.55 94 1012.4
20260501232447 60 307 1.7 2.6 0.07 4.55 4.55 95 1012.2
20260501231944 60 182 0.9 3.5 0.07 4.54 4.54 94 1011.7
20260501231443 60 292 1.7 1.7 0.31 4.54 4.54 95 1011.5
20260501230940 60 140 2.6 3.5 0.85 4.52 4.52 95 1011.4
20260501230439 60 9 1.7 5.2 0.73 4.48 4.48 95 1012.1
20260501225936 60 166 0.0 0.0 0.05 4.36 4.36 94 1012.8
20260501225434 60 161 0.9 2.6 0.17 4.36 4.36 94 1012.8
20260501224930 60 308 0.9 0.9 0.12 4.35 4.35 94 1011.6
20260501224427 60 294 1.7 2.6 0.00 4.33 4.33 94 1011.0
20260501223924 60 185 1.7 2.6 0.00 4.33 4.33 93 1011.4
20260501223420 60 162 0.9 3.5 0.00 4.33 4.33 93 1010.7
20260501222916 61 200 0.9 7.0 0.00 4.33 4.33 93 1010.4
20260501222414 61 191 0.9 3.5 0.00 4.33 4.33 93 1010.6
20260501221910 61 190 1.7 5.2 0.00 4.33 4.33 94 1010.5
20260501221407 61 238 0.9 1.7 0.00 4.33 4.33 94 1010.9
20260501220905 61 312 2.6 3.5 0.00 4.33 4.33 94 1011.2
20260501220402 61 244 0.9 0.9 0.00 4.33 4.33 95 1011.2
20260501215858 61 164 0.9 3.5 0.07 4.33 4.33 94 1011.6
20260501215355 61 263 0.9 2.6 0.12 4.33 4.33 94 1012.0
20260501214850 61 335 0.0 1.7 0.12 4.32 4.32 94 1012.2
20260501214346 61 234 0.9 1.7 0.14 4.31 4.31 94 1011.8
20260501213842 61 206 0.0 1.7 0.12 4.30 4.30 94 1012.1
20260501213339 62 285 0.9 1.7 0.17 4.29 4.29 94 1012.4
20260501212834 62 245 0.9 1.7 0.05 4.27 4.27 94 1012.0
20260501212331 62 263 0.0 0.9 0.00 4.26 4.26 95 1011.9
20260501211828 62 256 0.9 0.9 0.00 4.26 4.26 95 1011.8
20260501211326 62 253 0.9 0.9 0.00 4.26 4.26 95 1011.5
20260501210822 62 185 0.0 2.6 0.07 4.26 4.26 95 1010.9
20260501210319 62 248 0.9 1.7 0.07 4.26 4.26 96 1010.3
20260501205815 62 277 0.9 0.9 0.05 4.25 4.25 95 1010.5
20260501205313 61 160 0.9 0.9 0.12 4.24 4.24 95 1010.5
20260501204810 62 331 0.0 3.5 0.24 4.24 4.24 95 1010.7
20260501204306 62 262 0.9 3.5 0.19 4.22 4.22 95 1010.3
20260501203802 62 259 0.0 0.9 0.12 4.20 4.20 95 1011.4
20260501203300 62 331 0.9 0.9 0.12 4.19 4.19 95 1011.3
20260501202757 62 225 0.9 1.7 0.26 4.18 4.18 95 1010.5
20260501202254 62 177 1.7 2.6 0.24 4.17 4.17 95 1010.4
20260501201750 62 207 0.9 1.7 0.12 4.14 4.14 95 1010.5
20260501201247 62 194 0.0 1.7 0.12 4.13 4.13 95 1010.2
20260501200743 63 317 1.7 3.5 0.24 4.12 4.12 95 1009.6
20260501200241 63 187 0.9 1.7 0.28 4.10 4.10 95 1010.3
20260501195738 63 305 0.9 1.7 0.12 4.07 4.07 95 1011.0
20260501195234 63 286 0.9 1.7 0.07 4.05 4.05 95 1010.6
20260501194730 63 290 0.9 2.6 0.07 4.05 4.05 95 1010.2
20260501194226 63 296 0.0 0.9 0.00 4.04 4.04 95 1010.1
20260501193723 63 302 0.9 0.9 0.00 4.04 4.04 95 1010.1
20260501193222 63 253 0.0 0.0 0.00 4.04 4.04 96 1010.4
20260501192719 63 243 0.0 0.9 0.00 4.04 4.04 96 1010.3
20260501192216 63 263 0.0 0.9 0.07 4.04 4.04 95 1010.1
20260501191713 63 302 0.0 0.9 0.07 4.04 4.04 95 1010.2
20260501191210 63 335 0.9 1.7 0.05 4.03 4.03 95 1010.3
20260501190706 63 36 0.9 0.9 0.05 4.03 4.03 95 1010.6
20260501190202 63 60 0.0 1.7 0.07 4.02 4.02 96 1010.5
20260501185658 63 21 0.9 0.9 0.19 4.02 4.02 96 1010.4
20260501185154 62 183 0.0 2.6 0.12 4.00 4.00 96 1010.1
20260501184650 62 221 0.0 0.9 0.28 3.99 3.99 96 1010.1
20260501184150 62 207 0.9 5.2 0.42 3.98 3.98 96 1010.1
20260501183647 62 206 0.0 1.7 0.26 3.94 3.94 96 1010.5
20260501183144 62 195 0.0 0.9 0.05 3.90 3.90 96 1010.8
20260501182640 62 198 0.0 0.9 0.05 3.90 3.90 96 1010.5
20260501182137 62 151 0.9 3.5 0.07 3.89 3.89 96 1009.1
20260501181634 62 161 0.0 2.6 0.12 3.89 3.89 96 1008.6
20260501181131 62 243 0.9 0.9 0.12 3.88 3.88 95 1008.6
20260501180630 62 326 3.5 5.2 0.12 3.87 3.87 95 1008.8
20260501180125 62 73 0.0 5.2 0.12 3.86 3.86 95 1008.8
20260501175622 62 224 0.9 1.7 0.12 3.85 3.85 95 1009.5
20260501175119 62 153 1.7 5.2 0.12 3.84 3.84 95 1010.6
20260501174616 62 249 0.0 0.9 0.12 3.83 3.83 95 1010.6
20260501174114 62 254 0.9 2.6 0.05 3.82 3.82 95 1010.6
20260501173611 63 161 2.6 2.6 0.00 3.81 3.81 95 1011.0
20260501173107 63 223 0.9 0.9 0.14 3.81 3.81 95 1011.0